MEASAT-3

Last updated on Sept. 30, 2020, 5:50 a.m. UTC

1 29648U 06056A   20273.80205809 -.00000259  00000-0  00000-0 0  9999
2 29648   0.0312 146.1052 0004009  29.5453 213.6120  1.00270553 29545
UTC
Height (km)
Latitude
Longitude
Inclination
Orbital Period
UTC large
Height (km)
Speed (km/s)
/
Latitude / Longitude
Inclination (degrees)
Orbital Period (minutes)
Azimuth
Elevation
Range (km)
Doppler Factor
iOS Compass Heading
iOS Angle

Next 30 passes for location: Hong Kong

Rise time Rise Azimuth (degrees) Set time Set Azimuth (degrees) Duration Max altitude (degrees)

No matching passes for this satellites